Stations météo

Publicité
La Hague, France (7020): Température de l'air & dewpoint: 14.07.2018 01:00:00 - 20.07.2018 01:00:00 (CEST)La Hague, France (7020): Vitesse du vent & gusts: 14.07.2018 01:00:00 - 20.07.2018 01:00:00 (CEST)La Hague, France (7020): Direction du vent: 14.07.2018 01:00:00 - 20.07.2018 01:00:00 (CEST)La Hague, France (7020): reduced air pressure: 14.07.2018 01:00:00 - 20.07.2018 01:00:00 (CEST)La Hague, France (7020): visibility: 14.07.2018 01:00:00 - 20.07.2018 01:00:00 (CEST)La Hague, France (7020): Quantités de précipitations: 14.07.2018 01:00:00 - 20.07.2018 01:00:00 (CEST)
Date & Time tt [°C] td [°C] ff [km/h] ff [knt] fx [km/h] fx [knt] dd ppp [hPa] vv [km] rr [mm]
20.07.2018 01:00:00 16,3 14,3 5 3 18 10 NNW 1017,0 - -
20.07.2018 00:00:00 16,6 14,4 15 8 23 12 NNW 1017,2 - 0,0
19.07.2018 23:00:00 16,7 14,3 15 8 23 13 NNW 1017,2 20 0,0
19.07.2018 22:00:00 16,9 14,2 18 10 27 15 NNW 1017,1 - 0,0
19.07.2018 21:00:00 17,4 14,3 19 10 25 13 NNW 1017,1 - 0,0
19.07.2018 20:00:00 18,0 14,3 13 7 - - N 1017,3 20 -
19.07.2018 19:00:00 18,9 14,8 13 7 - - N 1017,3 - -
19.07.2018 18:00:00 - - 16 9 - - NNW - - -
19.07.2018 17:00:00 19,4 16,2 12 7 20 11 N 1017,8 16 -
19.07.2018 16:00:00 19,6 17,0 11 6 15 8 NNW 1018,3 - -
19.07.2018 15:00:00 18,8 16,4 7 4 11 6 NNW 1018,3 - -
19.07.2018 14:00:00 19,3 16,5 6 4 11 6 NW 1018,6 - -
19.07.2018 13:00:00 20,7 17,3 8 5 - - NE 1018,5 - -
19.07.2018 12:00:00 - - 9 5 - - NE - - -
19.07.2018 11:00:00 - - - - - - - - 20 -
19.07.2018 10:00:00 18,6 16,2 13 7 21 11 NE 1018,5 - 0,0
19.07.2018 09:00:00 17,1 16,0 11 6 16 9 NE 1019,1 - 0,0
19.07.2018 08:00:00 16,4 15,3 10 5 16 9 NE 1019,1 16 0,2
19.07.2018 07:00:00 16,2 14,9 10 5 14 7 NNE 1019,0 - 0,0
19.07.2018 06:00:00 16,0 14,5 7 4 10 5 N 1019,2 - 0,0
19.07.2018 05:00:00 15,9 14,6 6 3 9 5 NNE 1019,2 16 0,0
19.07.2018 04:00:00 14,5 13,5 6 3 8 4 NNE 1019,3 - 0,0
19.07.2018 03:00:00 13,4 12,3 3 1 5 3 NE 1019,7 - 0,0
19.07.2018 02:00:00 13,7 12,3 3 2 6 4 E 1020,0 16 0,0
19.07.2018 01:00:00 15,7 13,9 3 2 14 8 ENE 1020,0 - 0,0
19.07.2018 00:00:00 16,0 14,5 10 6 14 7 ENE 1019,6 - 0,0
18.07.2018 23:00:00 15,9 14,4 9 5 13 7 ENE 1019,4 16 0,0
18.07.2018 22:00:00 15,9 13,9 9 5 16 8 E 1019,2 - 0,0
18.07.2018 21:00:00 17,6 15,0 10 6 15 8 ENE 1019,2 - -
18.07.2018 20:00:00 18,4 - 11 6 - - NE - 18 -
18.07.2018 19:00:00 18,7 15,0 12 7 17 9 NE 1019,1 - -
18.07.2018 18:00:00 19,2 15,5 11 6 17 9 NE 1019,2 - -
18.07.2018 17:00:00 19,6 15,9 11 6 - - NNE 1019,4 18 -
18.07.2018 16:00:00 19,1 15,8 - - - - - 1019,4 - -
18.07.2018 15:00:00 19,0 15,9 - - 14 8 - 1019,5 - -
18.07.2018 14:00:00 18,8 15,3 7 4 10 5 N 1019,6 16 0,0
18.07.2018 13:00:00 19,1 15,6 6 3 9 5 N 1019,6 - -
18.07.2018 12:00:00 18,8 14,7 - - 11 6 - 1019,6 - -
18.07.2018 11:00:00 18,8 14,9 7 4 12 6 WSW 1019,5 16 -
18.07.2018 10:00:00 18,2 14,9 8 5 13 7 SW 1019,6 - 0,0
18.07.2018 09:00:00 17,1 15,1 10 5 13 7 SSW 1019,5 - 0,0
18.07.2018 08:00:00 16,3 14,8 8 5 14 8 SSW 1019,3 16 0,0
18.07.2018 07:00:00 15,1 13,8 11 6 15 8 SSW 1018,9 - 0,0
18.07.2018 06:00:00 14,9 13,6 11 6 15 8 SSW 1018,7 - 0,0
18.07.2018 05:00:00 13,8 12,2 11 6 14 7 SSW 1018,7 14 0,0
18.07.2018 04:00:00 15,6 13,8 10 5 14 8 SW 1018,9 - 0,0
18.07.2018 03:00:00 14,7 12,9 9 5 21 12 S 1019,1 - 0,0
18.07.2018 02:00:00 16,1 14,1 12 7 23 12 SSW 1019,1 14 0,0
18.07.2018 01:00:00 16,3 14,3 12 7 21 11 SSW 1019,3 - 0,0
18.07.2018 00:00:00 16,4 13,7 14 8 22 12 SSW 1019,3 - 0,0
17.07.2018 23:00:00 16,5 13,2 14 7 21 12 SSW 1019,2 14 0,0
17.07.2018 22:00:00 16,5 13,4 13 7 20 11 SSW 1018,8 - 0,0
17.07.2018 21:00:00 17,0 13,5 14 8 20 11 SSW 1018,8 - -
17.07.2018 20:00:00 18,3 14,4 14 7 - - SW 1018,6 16 -
17.07.2018 19:00:00 18,7 15,2 - - 19 11 - 1018,7 - -
17.07.2018 18:00:00 18,0 14,9 16 8 - - SW 1018,9 - -
17.07.2018 17:00:00 - - 16 9 - - SSW - 16 -
17.07.2018 16:00:00 - - 17 9 - - SSW - - -
17.07.2018 15:00:00 19,1 15,2 19 11 25 14 SSW 1019,4 - -
17.07.2018 14:00:00 18,4 14,5 8 4 26 14 WSW 1019,3 16 0,0
17.07.2018 13:00:00 17,7 13,8 10 6 20 11 SW 1019,3 - 0,0
17.07.2018 12:00:00 16,0 13,1 16 9 35 19 WSW 1019,3 - -
17.07.2018 11:00:00 17,5 15,3 16 9 22 12 SW 1018,7 - 0,0
17.07.2018 10:00:00 18,0 15,1 14 8 19 11 SSW 1018,3 - 0,0
17.07.2018 09:00:00 17,1 14,2 14 8 21 11 SSW 1018,3 - 0,0
17.07.2018 08:00:00 16,6 14,1 13 7 16 9 SSW 1017,9 16 0,0
17.07.2018 07:00:00 14,4 12,8 9 5 16 8 SSW 1017,6 - 0,0
17.07.2018 06:00:00 13,2 11,8 10 6 14 7 SSW 1017,3 - 0,0
17.07.2018 05:00:00 13,3 11,7 8 5 12 6 SSW 1017,1 20 0,0
17.07.2018 04:00:00 13,5 11,5 7 4 9 5 S 1017,2 - 0,0
17.07.2018 03:00:00 15,9 13,6 6 3 21 11 WNW 1017,2 - 0,0
17.07.2018 02:00:00 16,4 13,9 17 9 32 18 NW 1017,1 - 0,0
17.07.2018 01:00:00 17,2 14,8 23 13 31 17 W 1016,8 - 0,0
17.07.2018 00:00:00 17,4 14,9 22 12 34 19 W 1016,6 - 0,0
16.07.2018 23:00:00 17,5 15,5 26 14 34 18 W 1016,4 16 0,0
16.07.2018 22:00:00 17,3 15,5 20 11 26 14 WSW 1015,8 - 0,0
16.07.2018 21:00:00 17,8 16,3 17 9 22 12 WSW 1015,5 - -
16.07.2018 20:00:00 18,6 16,2 13 7 - - WSW 1015,1 12 -
16.07.2018 19:00:00 18,6 16,4 - - - - - 1015,0 - -
16.07.2018 18:00:00 19,1 16,3 17 9 - - SW 1015,1 - -
16.07.2018 17:00:00 19,6 15,9 17 9 24 13 SW 1015,2 8 -
16.07.2018 16:00:00 19,9 15,7 13 7 18 10 SW 1015,3 - 0,0
16.07.2018 15:00:00 18,3 15,4 13 7 21 11 SW 1015,5 - 0,0
16.07.2018 14:00:00 18,3 14,8 15 8 21 11 SW 1015,6 - -
16.07.2018 13:00:00 19,3 15,6 14 7 19 11 SW 1015,6 - -
16.07.2018 12:00:00 19,1 14,6 13 7 19 10 SW 1015,5 - -
16.07.2018 11:00:00 20,0 13,9 13 7 - - SW 1015,2 - -
16.07.2018 10:00:00 - - 11 6 - - SSW - - -
16.07.2018 09:00:00 18,9 14,8 6 4 9 5 SSW 1015,0 - 0,0
16.07.2018 08:00:00 17,8 15,2 4 2 8 4 - 1014,9 12 0,2
16.07.2018 07:00:00 14,5 13,0 5 3 8 4 SSW 1015,0 - 0,0
16.07.2018 06:00:00 13,3 11,9 5 3 10 5 SW 1015,4 - 0,0
16.07.2018 05:00:00 12,3 10,5 3 1 6 3 S 1015,6 18 0,0
16.07.2018 04:00:00 12,5 10,2 3 2 5 3 SW 1015,7 - 0,0
16.07.2018 03:00:00 15,9 14,3 2 1 11 6 NNW 1015,9 - 0,0
16.07.2018 02:00:00 14,4 12,8 10 5 12 7 SSW 1016,0 20 0,0
16.07.2018 01:00:00 14,2 12,2 9 5 10 6 SW 1016,2 - 0,0
16.07.2018 00:00:00 14,4 11,9 6 3 9 5 SW 1016,3 - 0,0
15.07.2018 23:00:00 14,8 10,8 2 1 5 3 SSW 1016,2 20 0,0
15.07.2018 22:00:00 17,8 11,4 2 1 - - S 1015,9 - -
15.07.2018 21:00:00 20,2 13,2 0 0 5 3 N 1015,7 - -
15.07.2018 20:00:00 19,9 13,1 3 2 5 3 NNW 1015,8 12 0,0
15.07.2018 19:00:00 - - 4 2 8 5 NNE - - -
15.07.2018 18:00:00 19,3 15,2 6 4 11 6 N 1016,7 - -
15.07.2018 17:00:00 19,9 15,1 9 5 14 8 NNE 1017,0 12 -
15.07.2018 16:00:00 19,8 16,1 10 5 - - NNE 1017,1 - -
15.07.2018 15:00:00 - - 9 5 - - NNE - - -
15.07.2018 14:00:00 - - 10 5 - - NNE - 12 -
15.07.2018 13:00:00 18,6 15,7 9 5 11 6 N 1017,8 - -
15.07.2018 12:00:00 18,4 15,3 7 4 9 5 N 1017,8 - -
15.07.2018 11:00:00 18,6 15,1 6 4 - - NNE 1017,8 12 -
15.07.2018 10:00:00 - - 5 3 9 5 NNE - - -
15.07.2018 09:00:00 18,6 14,7 6 3 8 5 - 1018,2 - 0,0
15.07.2018 08:00:00 17,9 14,6 4 2 5 3 - 1018,1 12 0,0
15.07.2018 07:00:00 12,9 11,5 5 3 6 3 - 1017,8 - 0,0
15.07.2018 06:00:00 12,1 10,8 5 3 6 3 E 1017,8 - 0,2
15.07.2018 05:00:00 11,7 10,1 0 0 3 2 N 1018,1 12 0,0
15.07.2018 04:00:00 13,5 11,9 0 0 4 2 N 1018,4 - 0,0
15.07.2018 03:00:00 11,7 9,8 2 1 8 5 SSW 1018,8 - 0,0
15.07.2018 02:00:00 12,1 9,8 7 4 9 5 S 1019,2 12 0,0
15.07.2018 01:00:00 12,4 10,6 6 3 8 4 SE 1019,4 - 0,0
15.07.2018 00:00:00 12,6 11,0 3 2 6 3 E 1019,4 - 0,0
14.07.2018 23:00:00 15,4 13,4 3 1 11 6 NNW 1019,5 12 0,0
14.07.2018 22:00:00 16,4 14,2 5 3 10 5 N 1019,3 - 0,0
14.07.2018 21:00:00 17,7 14,8 - - - - - 1019,3 - -
14.07.2018 20:00:00 18,5 15,4 7 4 - - NE 1019,3 12 -
14.07.2018 19:00:00 18,9 15,6 9 5 17 9 NE 1019,7 - 0,0
14.07.2018 18:00:00 19,1 15,6 13 7 16 9 ENE 1020,0 - -
14.07.2018 17:00:00 19,1 16,3 11 6 - - NNE 1020,4 12 -
14.07.2018 16:00:00 19,5 16,3 13 7 - - ENE 1020,6 - -
14.07.2018 15:00:00 19,6 16,6 11 6 - - NE 1020,9 - -
14.07.2018 14:00:00 - - 10 6 14 8 NNE - 15 -
14.07.2018 13:00:00 19,9 16,9 10 5 15 8 NE 1021,3 - -
14.07.2018 12:00:00 - - 11 6 - - NNE - - -
14.07.2018 11:00:00 - - 9 5 - - NNE - 20 -
14.07.2018 10:00:00 17,9 15,2 9 5 13 7 N 1021,8 - 0,0
14.07.2018 09:00:00 18,5 15,0 9 5 13 7 - 1021,8 - 0,0
14.07.2018 08:00:00 17,6 15,6 5 3 11 6 - 1021,4 14 0,0
14.07.2018 07:00:00 13,6 12,5 11 6 14 8 - 1021,2 - 0,0
14.07.2018 06:00:00 13,0 12,1 13 7 16 9 ESE 1021,3 - 0,0
14.07.2018 05:00:00 12,7 12,1 12 6 15 8 ESE 1021,5 8 0,0
14.07.2018 04:00:00 12,8 12,3 11 6 12 6 ESE 1021,7 - 0,2
14.07.2018 03:00:00 12,9 12,3 9 5 13 7 E 1022,1 - 0,0
14.07.2018 02:00:00 13,3 12,7 8 5 10 6 E 1022,3 - 0,0
14.07.2018 01:00:00 12,6 11,8 7 4 8 5 ESE 1022,5 - 0,0

tt = Température de l'air
td = dewpoint
ff = Vitesse du vent
fx = gusts
dd = Direction du vent
ppp = reduced air pressure
vv = visibility
rr = Quantités de précipitations

stations d'obs. à proximité